EN

Hourly Weather Godziszewy

Today, 18 May, Tuesday

Time Temperature Precipitation Wind Pressure Humidity
00:00 +11°C° 0.5 mm 3 mps 742 mmHg 95%
01:00 +11°C° 0 mm 4 mps 742 mmHg 96%
02:00 +11°C° 0.7 mm 4 mps 742 mmHg 96%
03:00 +10°C° 0.7 mm 4 mps 741 mmHg 96%
04:00 +10°C° 0.7 mm 4 mps 741 mmHg 96%
05:00 +10°C° 0.7 mm 4 mps 742 mmHg 96%
06:00 +10°C° 0.7 mm 4 mps 742 mmHg 95%
07:00 +10°C° 0.7 mm 4 mps 742 mmHg 95%
08:00 +11°C° 0.3 mm 4 mps 742 mmHg 94%
09:00 +11°C° 0.3 mm 4 mps 743 mmHg 93%
10:00 +11°C° 0.3 mm 4 mps 743 mmHg 92%
11:00 +11°C° 0.3 mm 4 mps 743 mmHg 92%
12:00 +12°C° 0.3 mm 5 mps 743 mmHg 92%
13:00 +12°C° 0.3 mm 5 mps 743 mmHg 91%
14:00 +12°C° 0.2 mm 5 mps 743 mmHg 91%
15:00 +12°C° 0.2 mm 5 mps 744 mmHg 90%
16:00 +12°C° 0.2 mm 5 mps 744 mmHg 89%
17:00 +11°C° 0 mm 4 mps 744 mmHg 90%
18:00 +11°C° 0 mm 4 mps 744 mmHg 91%
19:00 +11°C° 0 mm 4 mps 744 mmHg 92%
20:00 +10°C° 0 mm 3 mps 744 mmHg 93%
21:00 +9°C° 0 mm 3 mps 745 mmHg 95%
22:00 +9°C° 0 mm 3 mps 745 mmHg 97%
23:00 +8°C° 0 mm 3 mps 745 mmHg 97%

Tomorrow, 19 May, Wednesday

Time Temperature Precipitation Wind Pressure Humidity
00:00 +8°C° 0 mm 3 mps 745 mmHg 97%
01:00 +8°C° 0 mm 3 mps 745 mmHg 97%
02:00 +8°C° 0 mm 3 mps 745 mmHg 96%
03:00 +8°C° 0 mm 3 mps 745 mmHg 95%
04:00 +8°C° 0 mm 3 mps 745 mmHg 94%
05:00 +8°C° 0 mm 3 mps 746 mmHg 90%
06:00 +8°C° 0 mm 4 mps 746 mmHg 86%
07:00 +10°C° 0 mm 4 mps 746 mmHg 82%
08:00 +10°C° 0 mm 5 mps 746 mmHg 78%
09:00 +12°C° 0 mm 5 mps 746 mmHg 73%
10:00 +13°C° 0 mm 5 mps 746 mmHg 68%
11:00 +14°C° 0.1 mm 5 mps 746 mmHg 64%
12:00 +15°C° 0.1 mm 5 mps 746 mmHg 60%
13:00 +16°C° 0.1 mm 5 mps 746 mmHg 56%
14:00 +15°C° 0.3 mm 5 mps 746 mmHg 61%
15:00 +15°C° 0.3 mm 5 mps 746 mmHg 66%
16:00 +14°C° 0.3 mm 4 mps 746 mmHg 70%
17:00 +13°C° 0.2 mm 4 mps 747 mmHg 75%
18:00 +12°C° 0.2 mm 3 mps 747 mmHg 80%
19:00 +12°C° 0.2 mm 2 mps 747 mmHg 85%
20:00 +10°C° 0 mm 2 mps 747 mmHg 86%
21:00 +8°C° 0 mm 2 mps 748 mmHg 87%
22:00 +7°C° 0 mm 2 mps 748 mmHg 88%
23:00 +7°C° 0 mm 2 mps 748 mmHg 89%

Day after tomorrow, 20 May, Thursday

Time Temperature Precipitation Wind Pressure Humidity
00:00 +6°C° 0 mm 2 mps 748 mmHg 89%
01:00 +6°C° 0 mm 2 mps 748 mmHg 90%
02:00 +5°C° 0 mm 2 mps 749 mmHg 90%
03:00 +4°C° 0 mm 3 mps 749 mmHg 90%
04:00 +3°C° 0 mm 3 mps 749 mmHg 90%
05:00 +5°C° 0 mm 3 mps 749 mmHg 85%
06:00 +8°C° 0 mm 3 mps 749 mmHg 81%
07:00 +10°C° 0 mm 3 mps 750 mmHg 77%
08:00 +11°C° 0 mm 4 mps 750 mmHg 71%
09:00 +13°C° 0 mm 4 mps 750 mmHg 65%
10:00 +14°C° 0 mm 4 mps 750 mmHg 58%
11:00 +15°C° 0 mm 4 mps 750 mmHg 55%
12:00 +17°C° 0 mm 4 mps 750 mmHg 52%
13:00 +17°C° 0 mm 4 mps 750 mmHg 50%
14:00 +17°C° 0 mm 4 mps 750 mmHg 54%
15:00 +15°C° 0 mm 5 mps 750 mmHg 59%
16:00 +15°C° 0 mm 5 mps 750 mmHg 64%
17:00 +13°C° 0.2 mm 4 mps 750 mmHg 70%
18:00 +12°C° 0.2 mm 4 mps 750 mmHg 76%
19:00 +11°C° 0.2 mm 3 mps 751 mmHg 82%
20:00 +10°C° 0 mm 3 mps 751 mmHg 84%
21:00 +8°C° 0 mm 2 mps 751 mmHg 86%
22:00 +7°C° 0 mm 2 mps 751 mmHg 89%
23:00 +7°C° 0 mm 2 mps 751 mmHg 89%

21 May, Friday

Time Temperature Precipitation Wind Pressure Humidity
00:00 +6°C° 0 mm 2 mps 752 mmHg 88%
01:00 +6°C° 0 mm 2 mps 752 mmHg 88%
02:00 +5°C° 0 mm 2 mps 752 mmHg 90%
03:00 +5°C° 0 mm 2 mps 752 mmHg 91%
04:00 +5°C° 0 mm 2 mps 752 mmHg 92%
05:00 +7°C° 0 mm 3 mps 752 mmHg 87%
06:00 +9°C° 0 mm 3 mps 752 mmHg 83%
07:00 +10°C° 0 mm 4 mps 752 mmHg 78%
08:00 +12°C° 0 mm 4 mps 751 mmHg 72%
09:00 +13°C° 0 mm 4 mps 751 mmHg 67%
10:00 +15°C° 0 mm 5 mps 751 mmHg 61%
11:00 +15°C° 0.1 mm 5 mps 750 mmHg 59%
12:00 +16°C° 0.1 mm 6 mps 750 mmHg 58%
13:00 +16°C° 0.1 mm 6 mps 750 mmHg 56%
14:00 +16°C° 0.1 mm 6 mps 749 mmHg 58%
15:00 +16°C° 0.1 mm 5 mps 749 mmHg 60%
16:00 +16°C° 0.1 mm 5 mps 748 mmHg 61%
17:00 +15°C° 0 mm 4 mps 748 mmHg 66%
18:00 +14°C° 0 mm 4 mps 747 mmHg 70%
19:00 +13°C° 0 mm 4 mps 747 mmHg 74%
20:00 +13°C° 0 mm 5 mps 746 mmHg 71%
21:00 +13°C° 0 mm 6 mps 746 mmHg 68%
22:00 +13°C° 0 mm 6 mps 745 mmHg 64%
23:00 +13°C° 0.1 mm 6 mps 745 mmHg 68%

22 May, Saturday

Time Temperature Precipitation Wind Pressure Humidity
00:00 +11°C° 0.1 mm 6 mps 745 mmHg 71%
01:00 +12°C° 0.1 mm 5 mps 745 mmHg 74%
02:00 +12°C° 0 mm 5 mps 744 mmHg 74%
03:00 +12°C° 0 mm 4 mps 744 mmHg 74%
04:00 +12°C° 0 mm 4 mps 743 mmHg 75%
05:00 +12°C° 0 mm 5 mps 743 mmHg 75%
06:00 +13°C° 0 mm 5 mps 743 mmHg 75%
07:00 +13°C° 0 mm 6 mps 744 mmHg 74%
08:00 +14°C° 0 mm 6 mps 743 mmHg 72%
09:00 +15°C° 0 mm 6 mps 743 mmHg 69%
10:00 +16°C° 0 mm 6 mps 743 mmHg 66%
11:00 +17°C° 0 mm 6 mps 743 mmHg 66%
12:00 +17°C° 0 mm 5 mps 742 mmHg 66%
13:00 +17°C° 0 mm 5 mps 742 mmHg 66%
14:00 +16°C° 0.2 mm 5 mps 742 mmHg 72%
15:00 +15°C° 0.2 mm 5 mps 742 mmHg 77%
16:00 +14°C° 0.2 mm 5 mps 742 mmHg 82%
17:00 +13°C° 0.5 mm 4 mps 742 mmHg 86%
18:00 +12°C° 0.5 mm 3 mps 742 mmHg 89%
19:00 +12°C° 0.5 mm 3 mps 742 mmHg 93%
20:00 +11°C° 0 mm 3 mps 743 mmHg 92%
21:00 +11°C° 0 mm 4 mps 743 mmHg 91%
22:00 +11°C° 0 mm 4 mps 743 mmHg 89%
23:00 +9°C° 0 mm 5 mps 743 mmHg 89%

23 May, Sunday

Time Temperature Precipitation Wind Pressure Humidity
00:00 +9°C° 0 mm 5 mps 744 mmHg 89%
01:00 +8°C° 0 mm 5 mps 744 mmHg 89%
02:00 +7°C° 0 mm 5 mps 744 mmHg 91%
03:00 +7°C° 0 mm 4 mps 744 mmHg 92%
04:00 +6°C° 0 mm 4 mps 744 mmHg 93%
05:00 +7°C° 0 mm 5 mps 745 mmHg 90%
06:00 +8°C° 0 mm 5 mps 745 mmHg 87%
07:00 +9°C° 0 mm 5 mps 745 mmHg 83%
08:00 +10°C° 0.2 mm 6 mps 746 mmHg 78%
09:00 +11°C° 0.2 mm 6 mps 746 mmHg 72%
10:00 +13°C° 0.2 mm 6 mps 746 mmHg 67%
11:00 +14°C° 0.2 mm 6 mps 746 mmHg 64%
12:00 +15°C° 0.2 mm 7 mps 746 mmHg 61%
13:00 +15°C° 0.2 mm 7 mps 746 mmHg 58%
14:00 +15°C° 0.1 mm 7 mps 746 mmHg 58%
15:00 +15°C° 0.1 mm 6 mps 747 mmHg 57%
16:00 +15°C° 0.1 mm 6 mps 747 mmHg 56%
17:00 +14°C° 0 mm 5 mps 747 mmHg 61%
18:00 +12°C° 0 mm 4 mps 747 mmHg 67%
19:00 +11°C° 0 mm 3 mps 748 mmHg 72%
20:00 +10°C° 0 mm 3 mps 748 mmHg 76%
21:00 +9°C° 0 mm 3 mps 749 mmHg 79%
22:00 +8°C° 0 mm 3 mps 749 mmHg 83%
23:00 +7°C° 0 mm 3 mps 749 mmHg 84%
Show more